Notices

What's New in latest Release from April 7th, 2021:

- Updated Glossary, including Speed of Maximum Gust, and Total Hourly Precipitation

- Updated national and regional climate services offices contacts and prices information

- Addition of station inventory lists for 1981-2010, 1971-2000, and 1961-1990 Normals.

If you haven't already, please take our survey and provide feedback about our website: https://eccc.sondage-survey.ca/f/LanguageSelection.aspx?s=442ca660-fcf1-47c0-95a9-59707d6fd709

Hourly Data Report for November 22, 2019

SHEARWATER RCS
NOVA SCOTIA
Current Station Operator: ECCC - MSC

44°37'47.000" N
63°30'48.000" W
24.00 m
8205092
71264
AAW

Download Data

Hourly Data (November 2019)
Hourly Data Report for November 22, 2019
TIME
LST
Temp Definition
°C
Dew Point Definition
°C
Rel Hum Definition
%
Precip. Amount Definition
mm

Wind Dir Definition
10's deg

Wind Spd Definition
km/h
Visibility Definition
km
Stn Press Definition
kPa
Hmdx Definition


Wind Chill Definition


Weather Definition


00:00 1.2 -0.9 86 0.0 32 7   100.98     LegendNANA
01:00 0.8 -1.2 87 0.0 33 10   100.93     LegendNANA
02:00 0.4 -1.4 88 0.0 31 5   100.98     LegendNANA
03:00 1.2 -0.7 87 0.0 31 4   100.99     LegendNANA
04:00 1.6 -0.7 85 0.0 31 8   100.98     LegendNANA
05:00 1.5 -1.2 82 0.0 33 7   100.97     LegendNANA
06:00 1.4 -1.6 80 0.0 31 10   100.97     LegendNANA
07:00 1.4 -1.7 80 0.0 33 8   100.94     LegendNANA
08:00 1.6 -1.6 80 0.0 34 4   100.90     LegendNANA
09:00 2.0 -1.4 78 0.0 26 6   100.90     LegendNANA
10:00 2.5 -1.5 75 0.0 27 4   100.84     LegendNANA
11:00 3.7 -1.1 71 0.0 24 10   100.81     LegendNANA
12:00 4.2 -0.7 70 0.0 18 9   100.63     LegendNANA
13:00 4.7 0.7 75 0.0 17 14   100.45     LegendNANA
14:00 4.5 0.9 77 0.0 19 15   100.37     LegendNANA
15:00 5.2 1.9 79 0.0 19 17   100.28     LegendNANA
16:00 6.1 3.2 82 0.0 19 18   100.19     LegendNANA
17:00 7.1 4.5 84 0.0 19 22   100.08     LegendNANA
18:00 8.0 5.4 84 0.0 18 25   99.89     LegendNANA
19:00 8.8 6.4 85 0.0 17 27   99.66     LegendNANA
20:00 9.2 7.1 87 0.0 17 29   99.46     LegendNANA
21:00 9.5 8.0 90 0.3 18 32   99.21     LegendNANA
22:00 9.8 8.8 94 1.5 18 31   98.96     LegendNANA
23:00 10.5 9.9 96 4.0 20 23   98.75     LegendNANA

Notes on Data Quality.

Legend

  • E = Estimated
  • M = Missing
  • NA = Not Available*
  • [empty] = Indicates an unobserved value
Date modified: